^^
Dati storici Viterbometeo-Stazione meteorologica
 
Giornaliero Riepilogo per Giugno 13, 2021 Unità:  Metrico    English   Both
Giornaliero Settimanale Mensile Annuale
  Corrente: Alta: Bassa: Media:
Temperatura : 22.4 °C 22.5 °C 21.3 °C 22 °C
Punto di rugiada : 11.8 °C 14.7 °C 10 °C 11.7 °C
Umidità : 51% 62% 46% 52%
Vel. del vento : 0km/h 17.7km/h 0km/h 9.3km/h
Raffica di vento : 6.4km/h 20.9km/h - -
Vento Calm - - ENE
Pressione : 1018.0 hPa 1018.0 hPa 1017.3 hPa -
Precipitazione : 0.0 mm      
 
 
Dati tabulari per Giugno 13, 2021
Ora Temperatura Punto di rugiada Pressione Vento Velocità del vento Raffica di vento Umidità Tasso di pioggia (Ogni ora)
00:00 22.4 °C 14.7 °C 1018.0 hPa SE 1.6 km/h 4.8 km/h 62% 0.0 mm
00:05 22.3 °C 14.6 °C 1018.0 hPa ESE 1.6 km/h 6.4 km/h 62% 0.0 mm
00:10 22.2 °C 14.6 °C 1018.0 hPa ESE 1.6 km/h 4.8 km/h 62% 0.0 mm
00:15 22.2 °C 14.6 °C 1018.0 hPa Calm   4.8 km/h 62% 0.0 mm
00:20 22.3 °C 14.6 °C 1018.0 hPa ESE 4.8 km/h 4.8 km/h 62% 0.0 mm
00:25 22.2 °C 14.6 °C 1018.0 hPa ESE 3.2 km/h 6.4 km/h 62% 0.0 mm
00:30 22.2 °C 14.5 °C 1018.0 hPa ESE 3.2 km/h 9.7 km/h 62% 0.0 mm
00:35 22.2 °C 14.5 °C 1018.0 hPa ESE 4.8 km/h 9.7 km/h 62% 0.0 mm
00:40 22.1 °C 14.4 °C 1018.0 hPa ESE 4.8 km/h 11.3 km/h 62% 0.0 mm
00:45 22.1 °C 14.4 °C 1018.0 hPa East 9.7 km/h 11.3 km/h 62% 0.0 mm
00:50 22.1 °C 14.4 °C 1018.0 hPa East 6.4 km/h 11.3 km/h 62% 0.0 mm
00:55 22.1 °C 14.2 °C 1018.0 hPa ENE 6.4 km/h 8 km/h 61% 0.0 mm
01:00 22.1 °C 13.9 °C 1018.0 hPa ENE 6.4 km/h 9.7 km/h 60% 0.0 mm
01:05 22.1 °C 13.9 °C 1018.0 hPa NE 9.7 km/h 12.9 km/h 60% 0.0 mm
01:10 22.2 °C 14 °C 1018.0 hPa ENE 8 km/h 14.5 km/h 60% 0.0 mm
01:15 22.2 °C 14 °C 1018.0 hPa ENE 6.4 km/h 14.5 km/h 60% 0.0 mm
01:20 22.1 °C 13.9 °C 1018.0 hPa ENE 8 km/h 14.5 km/h 60% 0.0 mm
01:25 22 °C 13.6 °C 1018.0 hPa NE 9.7 km/h 12.9 km/h 59% 0.0 mm
01:30 22.1 °C 13.6 °C 1018.0 hPa East 6.4 km/h 12.9 km/h 59% 0.0 mm
01:35 22.1 °C 13.4 °C 1018.0 hPa NE 11.3 km/h 14.5 km/h 58% 0.0 mm
01:40 22.2 °C 13.2 °C 1018.0 hPa East 6.4 km/h 14.5 km/h 57% 0.0 mm
01:45 22.3 °C 13.3 °C 1018.0 hPa ENE 6.4 km/h 16.1 km/h 57% 0.0 mm
01:50 22.3 °C 13.1 °C 1018.0 hPa East 8 km/h 14.5 km/h 56% 0.0 mm
01:55 22.3 °C 13.1 °C 1018.0 hPa East 8 km/h 16.1 km/h 56% 0.0 mm
02:00 22.3 °C 12.8 °C 1018.0 hPa ENE 12.9 km/h 16.1 km/h 55% 0.0 mm
02:05 22.3 °C 12.8 °C 1018.0 hPa ENE 11.3 km/h 16.1 km/h 55% 0.0 mm
02:10 22.4 °C 12.6 °C 1018.0 hPa ENE 14.5 km/h 20.9 km/h 54% 0.0 mm
02:15 22.5 °C 12.4 °C 1017.6 hPa ENE 9.7 km/h 20.9 km/h 53% 0.0 mm
02:20 22.4 °C 12.3 °C 1017.6 hPa East 16.1 km/h 17.7 km/h 53% 0.0 mm
02:25 22.4 °C 12.1 °C 1017.6 hPa ENE 6.4 km/h 17.7 km/h 52% 0.0 mm
02:30 22.4 °C 11.8 °C 1017.6 hPa ENE 17.7 km/h 19.3 km/h 51% 0.0 mm
02:35 22.4 °C 11.8 °C 1017.6 hPa ENE 14.5 km/h 19.3 km/h 51% 0.0 mm
02:40 22.4 °C 11.4 °C 1017.6 hPa ENE 16.1 km/h 19.3 km/h 50% 0.0 mm
02:45 22.4 °C 11.4 °C 1017.6 hPa ENE 16.1 km/h 20.9 km/h 50% 0.0 mm
02:50 22.4 °C 11.4 °C 1017.6 hPa ENE 14.5 km/h 19.3 km/h 50% 0.0 mm
02:55 22.4 °C 11.2 °C 1017.6 hPa ENE 11.3 km/h 17.7 km/h 49% 0.0 mm
03:00 22.4 °C 11.2 °C 1017.6 hPa ENE 9.7 km/h 17.7 km/h 49% 0.0 mm
03:05 22.4 °C 11.2 °C 1017.6 hPa ENE 14.5 km/h 17.7 km/h 49% 0.0 mm
03:10 22.5 °C 10.9 °C 1017.6 hPa NE 11.3 km/h 19.3 km/h 48% 0.0 mm
03:15 22.5 °C 10.9 °C 1017.6 hPa ENE 14.5 km/h 17.7 km/h 48% 0.0 mm
03:20 22.5 °C 10.9 °C 1017.6 hPa ENE 9.7 km/h 16.1 km/h 48% 0.0 mm
03:25 22.5 °C 10.6 °C 1017.6 hPa East 16.1 km/h 16.1 km/h 47% 0.0 mm
03:30 22.5 °C 10.3 °C 1017.6 hPa ENE 11.3 km/h 14.5 km/h 46% 0.0 mm
03:35 22.4 °C 10.2 °C 1017.3 hPa East 4.8 km/h 16.1 km/h 46% 0.0 mm
03:40 22.3 °C 10.1 °C 1017.3 hPa ENE 11.3 km/h 16.1 km/h 46% 0.0 mm
03:45 22.3 °C 10.1 °C 1017.3 hPa East 4.8 km/h 16.1 km/h 46% 0.0 mm
03:50 22.3 °C 10.1 °C 1017.3 hPa ENE 8 km/h 17.7 km/h 46% 0.0 mm
03:55 22.2 °C 10.3 °C 1017.3 hPa ENE 12.9 km/h 19.3 km/h 47% 0.0 mm
04:00 22.2 °C 10.3 °C 1017.3 hPa ENE 14.5 km/h 17.7 km/h 47% 0.0 mm
04:05 22.2 °C 10.3 °C 1017.3 hPa ENE 12.9 km/h 17.7 km/h 47% 0.0 mm
04:10 22.1 °C 10.2 °C 1017.3 hPa ENE 12.9 km/h 17.7 km/h 47% 0.0 mm
04:15 22.1 °C 10.2 °C 1017.3 hPa ENE 14.5 km/h 19.3 km/h 47% 0.0 mm
04:20 22.1 °C 10.2 °C 1017.3 hPa East 8 km/h 17.7 km/h 47% 0.0 mm
04:25 22.1 °C 10.2 °C 1017.3 hPa ENE 14.5 km/h 19.3 km/h 47% 0.0 mm
04:30 22 °C 10.1 °C 1017.3 hPa East 12.9 km/h 17.7 km/h 47% 0.0 mm
04:35 21.9 °C 10.4 °C 1017.3 hPa NE 14.5 km/h 19.3 km/h 48% 0.0 mm
04:40 21.9 °C 10.4 °C 1017.3 hPa East 12.9 km/h 20.9 km/h 48% 0.0 mm
04:45 21.9 °C 10.3 °C 1017.3 hPa ENE 12.9 km/h 17.7 km/h 48% 0.0 mm
04:50 21.9 °C 10.3 °C 1017.3 hPa East 8 km/h 19.3 km/h 48% 0.0 mm
04:55 21.9 °C 10.3 °C 1017.3 hPa East 6.4 km/h 20.9 km/h 48% 0.0 mm
05:00 21.8 °C 10.3 °C 1017.3 hPa NE 9.7 km/h 19.3 km/h 48% 0.0 mm
05:05 21.8 °C 10.2 °C 1017.3 hPa ENE 16.1 km/h 20.9 km/h 48% 0.0 mm
05:10 21.8 °C 10.2 °C 1017.3 hPa ENE 14.5 km/h 19.3 km/h 48% 0.0 mm
05:15 21.7 °C 10.2 °C 1017.3 hPa East 11.3 km/h 19.3 km/h 48% 0.0 mm
05:20 21.6 °C 10.1 °C 1017.3 hPa ENE 14.5 km/h 17.7 km/h 48% 0.0 mm
05:25 21.7 °C 10.2 °C 1017.3 hPa ENE 11.3 km/h 20.9 km/h 48% 0.0 mm
05:30 21.6 °C 10.1 °C 1017.3 hPa ENE 8 km/h 19.3 km/h 48% 0.0 mm
05:35 21.6 °C 10.1 °C 1017.3 hPa East 14.5 km/h 19.3 km/h 48% 0.0 mm
05:40 21.5 °C 10 °C 1017.3 hPa East 14.5 km/h 17.7 km/h 48% 0.0 mm
05:45 21.4 °C 10.2 °C 1017.3 hPa ENE 12.9 km/h 17.7 km/h 49% 0.0 mm
05:50 21.4 °C 10.2 °C 1017.3 hPa NE 11.3 km/h 16.1 km/h 49% 0.0 mm
05:55 21.4 °C 10.2 °C 1017.3 hPa ENE 9.7 km/h 16.1 km/h 49% 0.0 mm
06:00 21.3 °C 10.2 °C 1017.3 hPa ENE 8 km/h 14.5 km/h 49% 0.0 mm
06:05 21.3 °C 10.4 °C 1017.3 hPa ENE 8 km/h 14.5 km/h 50% 0.0 mm
06:10 21.3 °C 10.4 °C 1017.3 hPa ENE 9.7 km/h 17.7 km/h 50% 0.0 mm
06:15 21.3 °C 10.4 °C 1017.3 hPa ENE 14.5 km/h 16.1 km/h 50% 0.0 mm
06:20 21.4 °C 10.5 °C 1017.3 hPa NE 9.7 km/h 14.5 km/h 50% 0.0 mm
06:25 21.4 °C 10.6 °C 1017.3 hPa East 11.3 km/h 14.5 km/h 50% 0.0 mm
06:30 21.4 °C 10.6 °C 1017.3 hPa ENE 4.8 km/h 16.1 km/h 50% 0.0 mm
06:35 21.5 °C 10.6 °C 1017.6 hPa NE 6.4 km/h 14.5 km/h 50% 0.0 mm
06:40 21.6 °C 10.9 °C 1017.6 hPa ENE 3.2 km/h 11.3 km/h 51% 0.0 mm
06:45 21.6 °C 10.9 °C 1017.6 hPa ENE 3.2 km/h 8 km/h 51% 0.0 mm
06:50 21.6 °C 11 °C 1017.6 hPa ENE 8 km/h 8 km/h 51% 0.0 mm
06:55 21.7 °C 11.1 °C 1017.6 hPa East 8 km/h 11.3 km/h 51% 0.0 mm
07:00 21.7 °C 11.1 °C 1018.0 hPa East 4.8 km/h 14.5 km/h 51% 0.0 mm
07:05 21.8 °C 11.2 °C 1017.6 hPa ENE 6.4 km/h 11.3 km/h 51% 0.0 mm
07:10 21.8 °C 11.2 °C 1018.0 hPa ENE 6.4 km/h 11.3 km/h 51% 0.0 mm
07:15 21.9 °C 11.6 °C 1018.0 hPa ENE 8 km/h 11.3 km/h 52% 0.0 mm
07:20 22.1 °C 11.4 °C 1018.0 hPa East 3.2 km/h 11.3 km/h 51% 0.0 mm
07:25 22.2 °C 11.5 °C 1018.0 hPa ENE 4.8 km/h 8 km/h 51% 0.0 mm
07:30 22.3 °C 11.6 °C 1018.0 hPa NE 6.4 km/h 9.7 km/h 51% 0.0 mm
07:35 22.3 °C 11.7 °C 1018.0 hPa ENE 4.8 km/h 9.7 km/h 51% 0.0 mm
07:40 22.4 °C 11.8 °C 1018.0 hPa Calm   6.4 km/h 51% 0.0 mm
Viterbometeo.it
Compliments of Weather Underground - 1.25 mb